Showing default

YAOGAN-34, 48340

Orbit data source: Space-Track

YAOGAN-34, 48340 is a payload satellite owned by PLA SSF (CN) in LEO that was launched on Fri, 30 Apr 2021 UTC via a CHANG ZHENG 4C launch vehicle from the Jiuquan Satellite Launch Center, China (JSC). Payload-class satellites include a variety of spacecraft equipped with specific instruments for various scientific and technological missions. These include communications satellites like Starlink; space stations such as the ISS; scientific satellites like the Hubble; Earth observation satellites from companies like Planet Labs, Umbra, and HawkEye 360; GPS; miniature CubeSats for education and research; and military/defense satellites.

Loading next visibility...
Identifier
48340, 2021-037A
Orbit
LEO
Country
Flag of CNCN / PRC
Related business
Manufacturer
DFH
Mission
Operational Defense Imaging
Bus & Motor
Unknown
Mass
~500 kg wet, ~500 kg dry
Launch date (UTC)
2021-04-30 (5 years ago)
Launch vehicle
CHANG ZHENG 4C
Launch site
Jiuquan Satellite Launch Center, China (JSC)
Object type
Payload
Rocket body
Debris
Shape & HBR
Box + 2 Pan, 0.5 m
Radar Cross Section
0.446 m², Large (>1 m²)

Expand to show TLE details & history
Last TLE update: 22 hours ago

TLE from 22 hours ago
0 YAOGAN-34
1 48340U 21037A   26172.51005684 -.00000092  00000-0 -29639-5 0  9996
2 48340  63.4023 135.2749 0041018 351.6647   8.3693 13.45433486252588
Epoch: 2026-06-21T12:14Z
TLE epoch observation values (Epoch: 2026-06-21T12:14:28.910Z)
Latitude
-0.00007°
Longitude
41.94511°
Altitude
1,060.568 km
Speed
7.337 km/s
True Right ascension
09h 01m 05s
True Declination
0° 00' 00"
Sunlit
Object was in daylight at epoch
Visualization orbit readout
Latitude
Unknown
Longitude
Unknown
Altitude
Unknown
Speed
Unknown
Apparent Right ascension
Unknown
Apparent Declination
Unknown
Sunlit
N/A
Visualization observer readout
Local Sidereal Time
21:26:02
Azimuth
Unknown
Elevation
Unknown
Doppler factor
Unknown
Orbital elements
Apogee altitude
1,118.561 km
Perigee altitude
1,057.312 km
Semi-major axis
7,466.073 km
Eccentricity
0.0041
Inclination
63.4023°
RAAN
135.2749°
Arg. of periapsis
351.6647°
True anomaly
8.43806°
Mean anomaly
8.3693°
Eccentric anomaly
8.40365°
Mean motion
3.36438 °/min
Orbital period
107 mins
BSTAR
-0.0000029639
Loading maneuver chart data...
Computing Atmospheric mass density...
Loading historical data...
Loading historical data...
Loading historical data...
Loading historical data...
Loading historical data...
Loading historical data...
Loading historical data...
Other satellites on launch #37 in the year 2021 (2021-04-30 UTC)

Documentation

Showing up to 5 results
|